Theta_e
353 356 357 357 357 360 358 358 349 347 344 329 335 340 342 355 354 354 355 356 356 351 348 347 347 346 350 349 350 350 350 354 351 348 349 352 352 352 354 352 351 352 352 352 352 352 351 352 352 354 354 354 354 353 353 354 355 355 354 353 353 353 354 354 354 352 352 352 352 354 354 353 352 353 355 354 353 351 351 353 353 351 351 351 352 352 353 354 354 354 355 355 355 356 355 353 353
356 357 358 358 358 359 357 359 345 333 332 327 335 342 346 355 352 354 355 355 353 348 347 345 347 348 348 346 347 350 350 350 348 349 349 350 351 353 353 351 351 352 351 351 353 353 353 352 352 354 353 354 354 353 354 354 355 355 354 354 354 353 354 353 354 354 351 351 352 353 352 353 353 353 354 354 355 354 354 354 355 354 353 353 353 354 354 355 355 355 355 355 355 355 354 352 352
357 357 358 358 358 357 358 357 339 325 326 327 334 346 351 352 351 355 354 352 349 346 347 345 348 350 348 347 348 350 350 348 347 347 348 350 352 353 353 351 352 352 352 352 354 354 354 352 353 354 353 353 353 354 353 354 354 354 354 355 355 353 354 353 353 353 353 353 353 353 352 352 353 353 353 353 354 354 355 355 354 354 354 354 354 354 355 355 355 355 355 355 355 354 354 352 352
357 358 358 358 357 357 359 352 338 328 327 328 332 348 353 351 352 354 352 349 348 346 347 347 349 349 351 352 350 351 351 349 348 347 348 350 352 353 353 352 352 352 352 353 354 355 354 353 353 353 353 353 353 353 353 354 354 353 355 355 353 353 354 353 353 354 354 353 353 353 352 352 352 352 352 352 352 354 354 354 353 353 354 354 355 354 355 355 354 355 354 354 354 354 353 353 352
358 360 357 358 359 358 357 346 341 335 332 334 335 349 354 351 352 351 350 348 348 347 346 348 350 348 350 351 350 353 351 348 349 349 350 351 352 353 353 352 351 351 352 354 355 355 354 352 353 353 353 353 354 353 352 353 353 353 353 352 351 353 354 353 354 354 352 352 353 353 352 352 352 352 352 352 352 353 353 354 353 354 354 354 355 354 354 354 353 354 354 354 354 354 354 354 352
358 360 357 358 357 358 354 339 337 337 343 349 343 350 354 351 352 349 348 347 347 346 346 348 349 349 350 348 349 351 350 349 350 350 352 352 352 353 353 352 351 351 353 356 355 355 353 351 353 353 352 352 353 353 351 352 353 353 351 350 351 353 354 352 352 352 351 352 353 352 352 353 352 352 353 353 352 353 353 353 353 353 354 354 354 355 354 353 353 354 354 354 353 354 355 354 353
358 359 356 358 357 357 349 334 336 340 349 356 349 352 354 353 352 349 348 347 347 346 346 348 347 350 352 349 350 350 350 351 351 351 352 352 352 354 353 352 353 353 355 355 354 354 352 351 352 352 352 352 352 352 351 352 353 354 351 349 350 353 353 351 351 351 350 351 353 353 353 352 351 352 352 352 352 352 352 353 352 352 353 354 354 354 354 353 354 353 354 354 354 354 354 354 353
358 358 356 359 357 353 344 336 343 346 349 354 352 354 353 354 352 350 349 346 348 347 346 347 346 351 352 350 352 352 351 352 351 352 352 352 353 353 353 352 353 355 355 354 353 353 351 351 352 352 353 352 351 351 351 352 353 354 352 349 349 351 352 352 352 351 351 351 352 352 352 352 351 352 353 352 352 352 352 353 353 353 353 353 353 353 353 354 354 353 354 354 353 353 353 353 352
359 359 358 359 352 343 339 339 346 351 353 354 353 355 354 353 352 351 349 346 347 346 348 347 347 352 351 350 352 351 352 353 353 353 352 352 353 353 352 351 352 354 354 353 352 352 351 350 351 351 352 351 350 350 351 352 353 354 352 351 349 349 351 352 353 351 351 352 351 351 351 352 352 352 351 351 352 352 352 353 353 353 353 353 352 351 352 353 353 353 353 353 352 352 352 353 351
359 357 359 359 347 335 332 338 345 352 355 354 354 354 353 352 351 351 350 348 346 346 347 345 347 349 349 350 351 350 352 353 353 352 351 352 352 351 351 350 351 353 353 353 353 352 351 351 351 351 351 350 349 349 350 352 353 353 352 351 349 349 351 352 352 352 352 351 350 350 351 352 352 350 349 349 350 351 351 352 352 352 353 352 352 351 351 351 352 352 351 351 351 352 351 350 349
360 355 357 355 338 327 328 335 344 352 355 354 355 353 352 351 350 350 350 348 345 346 345 346 348 347 347 350 350 351 353 352 353 352 351 352 351 351 350 350 351 353 354 354 353 353 352 351 351 351 351 349 348 349 351 352 352 353 352 351 349 349 353 352 350 351 351 350 350 351 351 352 351 350 350 349 349 351 350 349 350 351 352 351 350 350 351 350 351 352 350 350 349 351 350 347 346
359 355 358 350 334 330 333 339 344 353 356 353 354 354 351 350 352 350 349 347 345 346 346 349 349 345 347 350 351 352 353 352 352 351 351 351 351 351 350 350 352 353 354 354 353 354 353 352 353 352 352 350 348 349 350 351 352 353 352 352 351 349 352 352 350 350 350 350 351 351 351 352 350 349 350 350 350 351 350 350 351 352 352 350 348 350 351 350 350 351 349 349 349 351 351 348 346
358 356 356 347 340 341 340 343 349 352 353 354 355 355 351 350 353 350 348 346 346 347 345 346 345 344 349 351 351 350 351 352 351 350 350 350 351 351 350 351 352 353 353 353 353 354 354 353 354 353 351 351 349 349 350 350 351 352 351 351 350 349 351 352 351 351 351 351 351 350 350 351 349 349 349 351 351 351 351 351 352 352 351 349 347 350 351 350 349 349 349 349 349 350 351 349 347
357 356 356 350 347 349 344 344 348 345 345 354 356 354 352 351 351 349 348 348 348 347 346 344 342 346 349 352 351 348 350 350 349 349 349 350 351 350 350 351 351 353 353 353 353 354 354 352 353 352 351 352 350 350 350 350 351 351 349 350 350 349 350 351 350 350 352 352 350 348 348 349 350 350 349 349 350 350 351 350 350 351 351 350 349 350 350 349 349 349 349 349 349 351 350 349 347
356 354 356 352 346 345 347 347 345 341 344 354 356 353 353 350 348 350 350 350 348 345 345 345 345 346 347 350 351 349 351 350 349 349 350 350 350 350 350 351 351 353 353 353 353 354 354 352 352 351 352 353 351 351 351 350 351 351 348 351 351 350 349 349 349 348 351 353 351 349 348 349 349 349 349 349 350 349 350 350 349 348 349 351 350 349 349 348 349 350 349 349 349 350 349 348 349
353 354 356 349 342 340 344 350 346 342 346 354 354 353 353 350 348 351 350 347 347 345 345 345 344 345 344 346 349 350 351 350 349 349 350 350 350 350 350 351 351 352 352 352 353 354 354 353 352 353 354 355 354 353 353 353 352 351 349 350 351 351 350 347 346 346 349 353 352 351 350 350 349 349 349 349 350 348 349 349 347 347 347 350 351 348 348 348 348 349 349 350 349 350 349 348 349
351 356 354 344 342 340 344 352 347 343 349 354 353 353 354 351 351 350 348 345 346 346 345 344 343 345 344 346 350 352 352 350 351 351 351 351 349 349 349 350 350 350 351 352 354 354 353 354 354 355 355 355 355 355 355 353 352 352 351 351 350 350 350 344 342 345 349 352 352 351 350 350 351 350 349 348 349 347 347 348 347 348 348 349 350 349 348 348 348 349 350 350 349 349 348 347 347
353 357 351 345 346 344 352 357 350 350 353 355 353 354 354 353 353 348 347 346 345 346 346 345 345 346 346 349 352 352 352 351 351 351 350 351 349 349 348 349 349 349 350 352 353 353 352 353 354 355 355 356 355 355 355 353 352 353 353 352 351 350 350 345 342 347 350 351 352 354 352 351 352 352 350 349 348 348 348 349 350 350 350 350 350 351 350 350 349 349 348 348 348 346 346 349 348
354 354 348 350 354 351 357 358 354 355 354 353 353 353 352 352 352 348 350 347 345 347 347 347 346 347 348 349 351 351 351 351 350 350 350 350 349 349 348 348 347 348 350 352 353 353 352 352 353 354 355 355 355 354 354 354 353 353 352 351 351 350 351 349 346 349 351 350 351 354 355 354 355 353 351 350 349 350 348 348 349 348 348 347 346 346 346 346 345 345 345 344 343 342 347 353 351
354 351 348 352 354 354 357 358 357 356 355 355 351 350 351 351 348 348 350 347 346 347 346 347 348 348 347 347 350 351 351 351 351 350 350 350 350 349 348 348 347 348 350 351 352 353 352 352 352 354 355 355 354 354 354 354 353 353 351 350 351 351 351 351 350 351 351 350 349 350 352 355 356 354 351 350 351 351 348 346 345 344 345 343 342 343 342 341 340 341 340 339 343 346 351 352 349
354 352 353 354 352 353 357 359 358 355 356 355 351 351 350 350 349 347 349 349 348 347 345 346 347 348 347 346 348 350 351 351 351 350 349 349 349 348 347 347 347 349 350 351 351 353 353 352 352 354 355 355 354 354 354 353 353 352 351 351 351 351 351 351 352 353 352 350 348 347 348 351 354 353 350 350 352 352 350 349 348 348 349 346 345 348 347 343 344 346 343 342 349 351 350 349 348
356 354 357 357 352 354 358 359 360 357 356 354 353 354 352 352 351 348 349 351 349 344 343 344 345 347 346 346 347 349 350 350 351 349 349 349 348 348 348 347 347 348 350 351 351 352 353 352 352 353 354 355 355 355 355 353 352 352 351 351 351 351 351 351 353 352 350 349 348 346 346 347 349 351 351 350 351 351 350 350 349 350 351 348 347 350 349 347 348 350 349 348 350 349 348 348 349
358 357 357 358 355 357 360 360 360 357 356 356 356 355 351 353 353 350 349 349 347 343 343 344 345 347 347 348 348 347 347 347 350 349 349 348 348 348 347 347 347 348 350 350 350 351 352 352 352 353 353 355 356 355 355 353 352 351 351 351 351 351 351 352 353 350 347 346 347 347 346 346 347 347 349 349 347 347 346 347 347 347 348 347 348 348 346 347 348 348 348 349 348 347 346 347 348
358 358 358 360 358 360 360 358 359 356 357 358 356 354 353 354 354 352 349 347 346 343 343 345 346 349 349 348 346 345 347 348 349 348 348 348 347 347 346 347 347 348 349 350 350 351 352 352 352 353 353 354 355 355 354 354 352 352 351 351 352 352 352 353 351 348 344 343 346 349 348 346 345 344 344 345 344 344 343 343 344 346 346 346 347 348 347 347 348 347 348 349 348 348 346 346 348
355 359 360 361 360 360 357 355 357 356 357 357 355 356 356 356 354 352 350 346 344 344 345 346 347 348 347 346 345 345 347 349 349 348 348 348 347 346 345 347 347 348 349 349 349 350 351 351 352 352 353 353 353 353 353 353 352 352 352 352 353 352 353 353 350 347 343 342 345 348 348 345 343 342 342 342 343 344 344 345 345 346 347 348 349 349 349 349 349 348 349 349 349 349 347 347 348
351 358 360 361 362 359 356 357 359 357 357 356 356 358 356 354 353 352 350 346 344 345 346 346 346 346 346 346 345 346 346 348 350 349 349 349 347 346 345 346 347 348 348 349 349 350 351 350 351 351 352 352 351 352 352 353 352 352 352 352 352 351 353 352 349 345 342 341 345 349 349 346 343 341 342 343 344 346 347 347 348 348 348 349 350 350 349 351 350 349 350 350 350 350 349 348 349
350 355 357 360 362 361 358 358 359 357 357 356 356 358 356 354 354 353 348 345 345 345 347 347 347 347 345 345 345 348 348 348 349 349 349 349 348 347 345 346 346 347 348 348 349 350 351 350 351 351 351 352 351 351 351 353 353 352 352 351 350 351 352 351 347 344 341 342 346 349 349 348 345 341 342 345 346 348 349 349 349 349 350 350 351 351 351 351 351 351 350 351 350 351 351 349 350
352 354 358 359 359 360 358 359 359 357 357 356 356 358 357 355 353 353 348 345 345 346 347 347 347 347 345 345 345 348 349 349 350 349 349 349 349 348 346 346 346 347 348 348 349 350 351 350 350 351 351 351 351 351 351 352 353 352 351 351 350 351 351 349 346 345 345 347 348 349 349 349 348 344 345 348 348 349 350 350 351 351 351 351 352 352 352 353 353 352 352 353 354 353 352 350 349
353 353 357 359 361 362 360 361 359 357 360 358 356 352 353 357 354 351 347 345 346 346 348 347 347 347 345 346 345 347 350 350 351 349 350 349 349 349 347 347 346 347 349 349 350 350 350 351 351 351 351 352 351 351 351 351 351 352 351 350 350 350 350 348 346 346 348 349 350 350 350 350 352 351 351 352 351 351 351 351 351 352 352 352 353 354 354 354 353 351 351 353 355 354 351 348 348
353 355 353 354 357 360 363 363 359 360 361 362 357 341 344 358 355 352 349 345 346 347 348 347 346 347 345 345 346 347 349 351 352 351 351 351 351 350 349 348 348 348 349 349 351 350 350 351 351 352 351 352 351 350 351 351 351 351 351 350 350 350 350 348 346 346 348 349 349 350 351 351 353 355 356 356 353 351 351 352 351 351 352 353 354 354 354 353 352 351 349 349 349 349 346 345 344
352 353 350 345 337 343 364 363 359 364 360 363 359 337 339 359 357 353 350 345 348 347 348 347 345 347 345 345 346 346 348 350 352 351 351 352 351 352 351 350 349 349 350 350 351 350 351 351 351 352 352 352 351 350 350 351 351 351 351 350 349 350 350 349 347 347 349 349 348 349 351 351 352 355 357 356 354 352 350 350 351 351 353 354 353 354 354 352 352 351 350 347 345 343 342 342 342
349 339 333 334 327 336 366 364 358 365 360 362 359 338 341 360 358 354 351 347 350 348 347 348 346 347 345 345 346 344 347 349 351 351 351 352 352 351 352 351 351 350 350 351 351 351 351 352 352 352 351 352 352 351 351 351 351 351 351 351 350 350 350 348 347 347 348 348 347 346 351 353 352 355 357 356 354 351 349 348 350 352 353 354 353 354 354 352 351 350 351 349 346 344 341 339 339
344 334 322 326 325 329 352 361 362 364 361 362 358 345 346 357 356 353 351 348 349 348 348 348 347 347 346 345 345 345 346 347 349 350 351 351 352 351 352 352 352 351 351 351 352 352 352 352 352 351 351 353 353 352 351 351 351 351 352 351 350 350 349 346 346 347 347 347 345 345 352 355 353 353 355 356 354 350 349 348 350 352 353 353 354 354 353 351 349 349 352 351 350 348 342 338 338
330 331 324 327 328 323 332 352 364 362 359 361 359 354 350 354 356 352 351 349 349 349 348 348 348 347 347 346 345 345 346 346 347 349 350 351 351 351 351 352 352 352 352 352 353 353 352 353 352 352 352 352 354 353 352 351 351 351 352 351 351 351 349 345 345 347 347 346 346 348 355 357 354 354 355 356 355 351 351 350 351 352 352 354 354 354 352 351 350 349 350 352 352 349 345 341 339
322 324 322 323 326 326 325 337 357 361 359 359 357 356 354 354 355 352 350 349 350 350 349 348 349 348 348 347 345 346 346 346 347 349 350 350 351 351 351 352 352 353 353 353 354 354 353 354 354 354 353 353 354 354 353 352 352 351 351 351 351 351 349 345 345 347 346 345 347 350 355 357 356 356 355 357 357 353 352 353 353 353 353 354 354 353 352 351 352 351 350 352 352 350 347 345 342
326 325 325 322 320 325 329 335 349 356 356 358 355 352 353 353 354 355 351 350 350 350 350 349 349 349 349 347 346 347 346 346 347 349 349 349 350 351 351 352 352 352 353 353 355 355 355 356 355 355 355 354 354 354 353 352 352 352 352 350 350 351 349 346 346 347 346 346 347 351 355 359 358 356 355 357 357 354 353 354 355 354 353 353 353 352 352 352 353 352 351 352 351 349 347 344 343
331 329 327 325 321 323 334 343 348 352 352 353 354 352 352 352 353 355 353 351 351 349 350 350 349 350 348 347 347 347 347 346 348 349 349 349 349 350 351 351 352 353 353 355 355 356 356 356 355 356 356 355 355 355 354 352 352 352 351 351 350 350 349 346 346 347 346 346 349 352 354 358 360 358 358 358 357 355 355 355 355 354 354 354 354 354 354 354 354 353 352 351 349 348 346 345 345
330 328 323 323 323 325 338 346 346 354 352 346 354 355 351 353 352 352 354 353 352 350 350 349 349 350 348 347 348 347 347 346 347 348 349 349 349 350 351 351 352 353 354 355 356 356 356 356 356 357 356 355 356 355 354 353 353 353 351 350 349 349 349 346 344 345 345 346 351 353 354 356 360 360 359 359 357 356 356 356 356 356 356 356 356 355 355 355 354 352 352 350 348 348 347 346 347
328 326 322 319 323 326 337 351 352 354 352 347 356 353 346 352 352 351 354 353 353 351 349 350 349 350 348 347 348 347 347 346 346 346 348 349 348 350 350 351 352 353 354 355 356 356 357 356 356 356 357 356 356 355 354 353 353 353 351 350 349 348 348 345 342 344 345 345 349 352 354 356 359 359 358 357 356 356 357 357 357 357 357 357 356 356 355 355 354 352 351 350 349 348 346 347 349
326 325 319 316 324 322 324 346 361 358 355 353 359 350 342 349 352 353 354 353 355 354 351 351 350 350 349 347 347 347 347 347 347 345 347 348 349 350 350 351 352 352 354 354 355 356 356 357 357 357 357 356 356 355 354 353 354 354 353 353 351 348 348 345 342 344 345 346 346 349 353 356 357 357 357 356 356 357 356 356 356 357 357 357 356 355 354 353 353 352 351 351 350 348 348 349 350
325 326 322 318 324 322 321 343 360 358 357 360 356 335 328 339 347 349 354 354 355 356 355 353 351 350 349 347 347 347 346 347 347 345 346 348 349 349 350 351 352 352 353 354 354 355 356 357 358 358 357 356 356 355 355 355 354 355 354 354 351 350 349 346 343 344 346 346 346 347 350 353 355 355 357 356 356 356 356 356 356 357 357 356 355 353 353 353 352 351 352 352 350 349 349 350 351
320 325 326 323 324 323 328 345 347 334 334 354 352 322 317 331 337 343 355 358 358 357 358 355 353 353 350 349 348 347 346 346 347 346 346 348 349 350 351 351 352 351 352 353 353 354 355 357 358 358 357 357 356 356 355 355 355 355 355 353 351 350 350 347 343 342 345 346 346 346 347 350 352 354 356 356 355 355 355 356 356 356 357 356 355 353 352 352 351 351 352 351 350 350 350 350 350
315 321 325 325 325 322 327 337 331 318 322 350 355 323 315 323 328 342 355 358 360 359 357 355 354 354 351 350 349 347 347 346 346 347 346 348 349 349 351 351 351 351 352 352 352 353 354 356 358 358 357 357 356 356 355 355 355 355 354 352 350 350 349 347 345 341 342 345 344 345 347 348 350 352 354 355 356 354 354 356 356 356 357 356 355 353 350 351 350 352 352 351 352 353 353 351 349
315 323 325 324 324 322 327 331 324 320 326 343 352 333 318 316 326 350 357 351 357 359 359 358 355 354 352 350 349 348 347 346 346 346 346 347 349 350 351 351 351 350 351 352 352 352 354 356 359 359 357 357 356 355 355 356 354 352 353 353 351 351 349 347 346 342 341 343 344 346 347 349 350 351 353 355 356 354 353 355 356 356 356 356 355 351 350 351 351 353 354 354 355 355 354 353 352
321 328 327 327 329 327 332 329 321 325 323 320 332 334 320 314 325 350 357 347 348 353 358 359 356 355 353 350 349 347 347 347 346 345 346 347 349 350 350 351 350 349 350 352 352 352 354 357 360 360 358 357 355 354 355 355 354 353 354 354 352 351 349 348 346 344 344 345 346 347 348 349 350 351 353 354 354 353 352 353 354 355 355 355 353 349 349 352 352 354 355 355 356 355 354 353 353
327 331 331 332 333 331 333 328 321 324 318 311 321 327 318 313 318 332 343 339 340 347 350 354 356 356 355 352 349 348 347 347 346 345 346 347 349 349 349 350 350 349 350 351 352 352 354 358 360 361 359 358 356 355 355 354 354 355 355 355 354 352 351 349 348 346 346 348 348 347 348 350 351 351 352 352 353 353 352 351 353 354 354 353 352 350 349 350 352 354 354 354 355 355 354 353 353
328 330 332 329 331 333 331 329 323 319 315 314 319 323 320 315 315 322 335 338 339 344 346 348 354 356 357 354 349 348 347 347 347 345 346 348 349 349 350 350 350 350 350 351 352 352 354 358 360 361 361 358 357 355 355 354 354 354 355 355 355 353 352 351 349 348 348 349 348 346 348 350 349 350 350 350 352 353 352 351 352 354 354 353 352 351 350 348 349 351 352 354 355 355 355 354 354
326 329 328 321 322 326 322 322 323 316 315 318 322 328 325 316 317 326 337 342 343 344 345 347 349 353 357 356 351 349 348 347 347 346 346 347 348 350 350 350 350 350 351 352 352 352 354 356 359 361 361 359 358 356 355 355 354 354 355 355 355 354 353 352 351 350 349 349 348 346 347 349 349 350 349 350 351 351 351 351 351 352 354 354 352 351 351 349 348 349 351 354 354 355 356 355 354
326 326 322 314 314 318 316 316 318 315 316 321 327 333 326 318 322 333 339 342 343 345 345 346 348 350 355 356 353 352 349 347 348 347 346 346 347 350 350 350 352 352 352 353 353 353 354 356 359 361 362 360 359 357 355 354 354 354 354 355 355 355 354 352 352 350 349 348 348 346 348 350 351 350 350 350 351 350 350 351 351 351 354 355 354 353 353 351 351 349 350 353 352 354 355 355 354
323 321 316 312 312 314 315 314 315 315 315 322 333 334 322 317 326 339 343 344 345 346 347 348 350 351 353 354 352 351 350 349 348 348 348 347 349 351 350 351 353 353 353 353 353 354 354 356 358 360 361 361 359 358 356 355 354 354 353 353 354 354 354 353 352 350 348 348 347 347 347 349 350 349 349 349 349 348 347 348 350 351 354 356 356 355 354 352 353 351 350 352 352 352 354 355 354
323 325 321 314 311 312 313 312 312 314 315 322 333 328 316 315 329 344 347 347 348 348 350 353 354 355 355 354 352 350 350 349 349 349 349 348 350 351 351 353 354 354 354 353 354 355 356 357 358 359 361 361 360 358 356 355 354 353 353 353 354 354 353 352 352 350 349 348 347 347 347 347 347 347 347 348 349 348 345 346 349 351 352 355 356 355 352 351 353 354 352 352 353 352 353 354 353
323 327 322 315 315 315 312 311 313 313 312 317 323 321 318 324 337 347 347 346 350 351 352 353 352 355 356 354 353 352 350 349 348 349 348 349 352 353 353 354 354 354 354 354 355 356 356 356 356 358 360 360 360 359 357 356 355 353 353 353 354 354 354 352 351 351 350 349 348 347 347 347 347 346 347 349 350 348 346 345 349 349 349 352 354 353 351 349 352 354 353 354 354 351 350 352 352
321 320 315 318 324 320 312 311 314 313 310 314 317 315 319 325 331 342 349 347 348 349 349 349 349 353 354 354 354 352 351 351 349 349 349 350 353 353 354 355 354 354 355 355 355 356 356 355 355 356 359 359 359 358 357 356 356 355 353 354 354 354 354 352 351 351 350 350 349 348 347 348 347 347 348 349 348 347 347 347 348 348 347 350 351 351 351 350 352 354 354 354 354 351 350 351 352
320 315 317 323 325 322 316 312 313 313 312 314 314 312 315 318 323 336 347 347 346 347 348 347 348 351 354 354 355 354 353 351 350 350 350 351 355 356 355 354 353 355 356 355 355 356 354 353 353 354 356 358 357 356 355 355 356 356 354 354 354 354 353 352 351 350 350 349 349 349 348 347 346 346 347 346 345 345 347 349 348 347 347 349 349 349 350 350 353 353 353 354 355 354 352 352 354
322 319 323 322 315 313 314 312 312 313 314 314 314 314 315 316 319 328 337 340 344 348 349 348 347 349 352 353 355 356 354 353 352 352 351 354 356 356 355 353 354 356 356 355 355 354 351 349 349 350 352 356 356 355 354 354 354 355 354 354 354 353 353 351 351 350 349 349 349 348 347 346 346 346 346 346 346 346 347 349 349 347 346 347 348 349 349 351 352 353 353 352 353 354 355 355 355
323 323 325 322 317 314 314 314 312 312 314 315 315 316 316 319 326 330 334 341 344 347 349 350 348 348 350 352 355 356 356 355 353 351 352 354 354 355 355 354 355 356 355 353 353 353 352 350 349 348 349 354 354 353 354 354 353 353 353 354 354 354 352 351 351 351 350 349 348 347 346 346 346 346 346 347 347 346 346 347 348 346 345 345 346 347 347 350 352 353 352 352 352 354 356 357 356
319 317 317 318 318 318 317 317 314 313 314 315 318 317 315 324 338 341 340 343 344 346 349 349 348 349 351 352 354 357 357 355 353 351 351 350 351 353 354 355 356 355 354 353 353 354 353 352 352 350 349 351 352 351 352 353 353 353 353 353 354 354 353 352 350 350 351 350 348 347 345 345 346 346 347 347 347 346 346 347 347 345 344 344 345 346 346 348 351 353 353 353 353 355 358 358 357
321 317 316 316 317 316 313 314 315 315 314 315 318 317 317 327 342 346 347 348 347 347 347 346 349 353 355 355 356 357 357 355 353 352 351 350 351 352 352 355 356 355 354 354 354 356 354 355 355 353 352 352 350 351 351 352 353 353 353 353 353 353 353 352 350 350 350 350 349 348 346 345 346 346 347 347 347 347 347 347 347 346 345 344 346 347 348 348 349 351 353 354 353 354 357 358 357
Wind_Speed
3 1 1 3 4 5 4 4 1 3 2 6 5 5 6 5 4 6 8 5 5 5 4 7 9 6 2 4 8 8 8 7 3 0 3 4 11 14 13 16 17 17 17 16 15 16 15 15 14 12 12 12 12 13 13 12 11 11 11 12 13 12 12 11 12 12 11 11 11 11 11 11 11 12 13 14 16 14 12 12 10 10 11 10 10 10 10 9 9 9 9 9 9 9 9 8 8
2 1 3 4 5 5 1 2 1 4 4 6 6 6 5 4 5 7 8 6 6 7 8 9 9 5 3 5 7 9 9 9 6 5 6 10 13 12 14 16 16 16 16 15 15 16 15 15 14 12 11 11 12 12 13 12 12 11 10 12 12 12 11 11 11 11 11 10 11 11 11 10 10 11 11 12 15 15 14 12 11 10 10 10 10 10 10 9 9 9 9 9 9 9 8 8 8
1 2 3 5 5 5 1 2 1 4 5 6 7 6 4 5 8 8 7 8 9 10 10 10 9 5 3 6 4 7 7 6 9 8 8 11 11 11 14 14 15 16 14 14 14 15 14 14 14 13 12 12 12 11 11 11 11 10 10 11 12 12 11 12 11 10 10 10 11 11 10 10 10 10 10 11 12 12 12 12 11 10 10 10 9 9 10 10 9 9 9 10 10 9 9 8 8
2 3 4 5 4 4 3 2 2 3 6 6 6 7 5 7 9 8 7 8 9 9 10 9 7 4 2 6 4 7 7 6 9 9 8 10 10 13 15 14 15 14 13 14 13 14 14 15 15 13 13 13 12 11 11 11 10 11 12 11 11 12 12 12 11 11 10 11 12 11 10 11 10 10 10 10 10 10 10 10 10 10 9 9 9 9 9 9 9 9 9 10 9 9 9 8 9
3 3 3 5 3 1 2 1 3 4 6 5 6 7 7 8 9 9 8 8 7 7 8 5 6 6 5 6 3 4 6 5 9 9 9 10 13 15 15 14 14 13 13 13 12 12 14 16 14 13 14 13 12 11 11 11 11 12 13 11 10 11 12 12 11 11 11 12 12 11 11 11 10 10 10 10 10 10 9 9 9 10 9 9 9 9 9 9 9 10 9 9 9 9 9 8 9
3 4 2 4 2 2 2 3 4 6 6 5 7 7 7 8 8 9 9 8 6 6 6 4 5 7 7 7 5 6 5 5 8 9 11 13 15 16 15 14 13 12 13 12 12 11 14 16 13 13 14 14 12 11 11 11 12 13 14 11 9 11 12 11 11 11 11 12 12 11 11 11 10 10 10 10 10 10 10 9 9 9 9 9 9 9 8 8 9 10 10 10 10 9 9 9 9
4 3 3 4 2 2 1 6 5 7 5 5 7 8 8 8 7 8 8 7 6 6 4 4 5 6 6 4 5 8 5 5 7 10 13 16 16 15 14 13 13 13 12 11 12 12 14 15 12 13 14 14 12 11 10 11 13 14 13 11 9 11 12 11 10 10 11 12 12 11 11 11 11 11 10 10 10 10 10 10 10 10 9 9 9 9 9 9 9 10 10 10 10 9 9 9 9
4 3 2 3 2 3 2 7 5 6 5 5 7 8 8 7 6 5 6 6 5 6 5 5 3 4 6 2 3 7 5 6 9 14 16 18 17 15 14 13 14 13 12 12 12 12 13 13 12 13 13 13 12 12 11 10 12 14 13 11 9 12 13 12 11 10 11 12 12 11 11 11 11 11 10 10 10 10 10 10 10 10 10 9 9 10 10 10 10 10 11 10 10 10 10 9 8
3 3 2 2 2 4 5 6 6 6 7 6 6 7 7 6 4 3 5 6 6 6 6 5 2 3 7 6 6 7 7 9 13 17 18 18 16 14 13 12 13 13 13 12 12 12 11 12 12 12 12 11 12 11 11 10 11 14 14 11 9 11 13 13 12 11 10 11 11 11 12 11 10 11 10 10 10 10 10 10 10 10 10 10 9 10 12 11 10 10 11 11 11 10 10 9 8
3 2 2 3 2 5 5 5 6 6 7 6 7 7 6 5 3 3 5 6 6 7 7 4 4 6 8 9 8 6 9 13 15 17 17 17 15 13 12 12 12 13 13 12 12 11 11 12 12 11 10 10 11 11 10 10 10 13 14 12 10 12 14 14 12 12 10 10 11 12 12 11 10 11 11 10 10 11 11 11 10 10 10 10 9 9 11 11 11 11 12 12 12 11 9 8 7
2 2 2 2 3 5 5 6 6 7 8 6 7 6 5 4 3 4 4 6 6 7 7 4 6 9 9 9 7 8 12 14 16 17 17 16 14 13 12 12 11 11 12 11 11 11 11 12 12 11 10 9 10 11 10 10 10 11 14 13 11 12 14 14 12 12 10 10 12 12 12 11 10 11 12 11 10 10 11 11 10 11 10 10 10 9 10 11 11 11 13 13 12 12 10 8 8
2 2 2 2 2 4 5 6 7 7 8 7 7 5 4 3 2 4 5 6 7 7 6 3 6 8 8 9 6 10 13 14 15 17 16 15 14 13 12 11 11 11 11 11 10 10 11 11 11 12 11 10 9 10 10 9 9 10 12 13 12 11 13 13 11 12 11 10 12 12 12 11 10 12 13 12 12 11 11 11 10 11 10 11 11 10 10 11 12 12 13 13 12 12 10 9 8
2 1 4 1 2 3 6 6 7 7 7 6 6 4 3 3 2 3 4 6 6 6 6 5 8 7 7 9 7 10 12 13 15 16 15 14 13 13 12 12 12 11 11 11 10 10 10 11 11 11 12 11 9 9 10 10 9 8 11 12 12 11 12 14 12 12 13 12 12 10 12 13 12 12 12 13 13 12 11 11 11 11 11 10 11 11 11 11 13 13 12 12 11 11 11 8 7
2 2 4 0 3 2 5 5 6 6 6 6 5 4 4 2 1 1 3 6 6 6 7 8 7 6 8 8 7 8 11 15 16 15 14 13 13 12 12 12 11 11 11 11 10 10 10 10 10 10 11 11 10 9 9 10 9 9 11 12 12 11 12 13 13 13 13 14 13 10 11 14 14 12 12 12 12 11 11 11 11 12 11 11 10 10 11 12 13 13 12 11 10 11 10 7 6
3 2 4 1 4 3 3 3 5 5 5 6 4 4 5 1 1 2 2 4 7 7 7 8 4 3 7 7 7 9 13 18 17 15 14 13 13 12 12 11 11 11 10 10 10 10 10 10 9 10 10 11 10 9 9 9 9 9 10 11 11 11 12 12 12 12 13 14 15 12 11 13 14 14 12 12 11 11 11 10 11 11 11 11 10 10 11 12 12 12 12 10 9 9 8 6 6
2 4 3 3 3 3 3 2 4 5 5 6 5 5 5 4 2 3 2 2 7 7 5 6 3 2 4 6 10 16 18 19 17 16 15 14 13 12 11 10 10 10 10 10 9 9 10 10 10 9 9 10 10 9 10 10 10 9 9 10 11 11 11 12 11 11 13 14 16 15 12 12 13 14 13 12 11 11 11 10 11 11 10 10 10 10 11 11 11 11 10 9 8 8 7 7 6
2 4 4 3 3 3 3 3 2 4 6 6 7 5 5 6 3 3 2 2 8 7 4 6 4 2 4 10 17 21 20 19 17 17 16 15 13 12 11 10 10 9 9 9 9 9 9 10 10 10 9 9 10 10 10 10 10 10 9 9 10 11 12 13 12 11 12 13 16 17 14 11 11 13 13 12 11 11 11 11 12 11 10 9 9 9 9 9 10 10 9 8 8 8 8 6 5
3 3 3 1 3 3 3 4 3 4 6 6 6 5 4 7 6 4 5 5 8 7 7 7 6 6 10 17 21 21 20 19 18 18 17 15 13 12 12 10 10 9 9 9 9 9 9 10 10 9 9 9 9 9 9 8 9 10 9 9 9 10 11 12 11 11 10 11 14 14 13 11 10 11 12 11 10 10 11 11 11 10 10 9 8 8 8 8 8 9 9 9 9 8 7 5 3
2 3 2 1 4 4 3 4 4 3 5 6 7 5 4 7 7 6 5 7 8 7 8 8 10 12 14 19 21 20 19 19 18 17 17 15 14 13 12 11 10 9 10 9 9 9 9 9 9 9 9 10 8 7 8 8 9 9 9 9 9 9 10 10 10 10 9 9 10 11 11 11 10 11 12 11 10 10 10 9 9 9 9 8 8 8 8 8 9 9 8 8 7 6 5 4 4
1 3 1 4 4 4 4 3 4 4 4 4 6 5 4 6 6 6 5 6 6 5 7 8 11 14 16 18 19 20 18 18 18 16 16 15 14 14 12 12 11 10 10 10 10 9 9 9 9 9 10 10 9 8 8 8 9 9 9 9 9 9 9 9 9 9 9 8 9 9 9 10 11 11 13 13 11 10 10 9 8 8 7 6 6 6 6 7 7 7 6 6 5 4 4 5 5
0 2 1 5 1 2 5 3 3 3 2 2 4 5 6 5 4 5 5 4 3 4 6 7 11 16 17 17 18 19 19 18 17 16 16 15 14 13 12 12 12 10 10 9 9 9 9 9 9 10 10 10 9 8 8 8 9 9 9 9 9 9 9 9 8 7 7 8 7 7 7 9 9 10 11 10 9 9 10 10 9 8 7 6 6 5 4 4 5 4 4 5 5 5 6 6 6
1 1 4 4 1 2 5 3 2 2 1 1 3 3 5 4 4 4 5 3 3 3 5 8 12 16 18 18 18 18 18 17 17 16 15 15 14 13 12 12 12 11 10 9 10 9 10 9 9 10 10 11 9 8 8 8 9 9 9 10 10 9 9 9 8 7 7 6 6 6 7 8 8 8 8 7 7 7 8 8 8 8 7 7 6 5 5 4 5 6 6 6 7 7 7 6 6
1 2 4 3 1 3 4 4 2 1 1 2 2 1 1 3 4 4 4 1 4 3 6 9 12 16 18 19 17 17 16 16 16 16 15 15 14 13 13 13 12 12 10 10 10 9 10 10 9 9 10 10 9 8 8 8 8 9 9 10 10 9 9 9 8 7 6 6 6 6 6 7 7 8 8 7 7 7 7 8 8 8 8 8 7 7 7 7 7 7 7 7 7 7 7 7 7
1 2 4 3 3 4 3 4 3 2 2 2 1 0 1 3 2 4 5 3 1 4 7 10 13 16 18 17 16 15 15 15 16 16 15 14 14 14 13 13 12 11 10 10 10 10 10 10 10 9 9 9 9 9 8 8 8 8 9 9 9 9 9 8 8 8 7 6 6 6 5 6 7 7 8 8 8 8 8 9 9 9 9 9 8 8 9 8 8 8 7 7 7 6 7 7 7
3 2 3 3 4 3 2 3 3 3 2 2 2 1 2 1 1 3 7 7 6 6 8 11 14 16 15 15 15 14 14 14 15 15 14 13 13 14 13 12 12 11 11 11 11 10 11 11 10 10 9 9 9 9 8 7 8 8 8 8 9 9 8 8 8 7 7 7 7 6 6 6 6 7 8 9 9 9 9 9 10 9 9 9 8 8 8 8 7 7 7 6 6 6 6 6 6
4 2 3 3 5 4 3 3 3 3 2 2 3 3 3 1 2 2 5 6 7 8 9 12 13 15 14 13 14 13 13 13 14 15 14 12 13 14 13 12 12 12 11 11 11 10 10 11 11 10 10 9 9 9 8 7 7 8 7 7 8 8 8 8 7 6 7 7 7 7 6 6 6 8 9 9 9 9 9 9 9 9 9 8 7 7 7 6 6 6 6 5 5 5 5 5 5
3 3 5 4 4 4 4 4 4 4 3 2 4 3 3 2 3 2 3 5 8 9 10 12 12 14 13 12 12 12 12 13 14 15 14 13 13 14 14 13 13 12 11 11 11 10 10 11 11 10 10 9 9 8 8 7 7 7 7 6 6 7 7 8 6 6 7 8 8 7 8 7 6 8 10 9 9 9 9 9 8 8 8 7 6 6 6 5 5 5 4 4 4 4 5 5 5
2 3 5 6 4 3 4 5 5 5 4 3 3 3 4 4 4 2 5 6 9 10 11 12 12 12 12 12 12 11 11 13 14 14 15 14 13 14 14 13 13 12 12 12 11 10 10 11 10 11 10 10 9 9 8 8 7 7 7 6 6 6 7 7 6 6 6 7 8 8 8 8 6 9 10 10 10 10 9 9 8 7 7 7 5 5 5 4 4 4 3 3 3 4 5 5 5
2 3 3 7 7 3 4 5 4 5 3 4 4 4 6 9 7 4 6 7 9 10 11 12 11 11 11 12 11 10 11 13 14 13 14 14 13 13 14 14 13 12 12 12 12 11 11 11 11 11 11 11 10 10 9 8 8 7 7 7 6 7 7 6 6 6 5 6 8 8 8 8 7 8 8 8 9 9 9 9 8 7 7 6 5 4 4 4 4 4 4 3 3 4 5 6 6
2 3 4 4 6 4 5 5 4 5 3 4 5 3 3 8 8 6 7 8 10 10 10 11 11 10 10 11 10 10 11 13 13 13 13 13 12 12 13 13 13 12 11 12 13 12 12 11 11 10 11 11 11 10 9 8 8 7 7 7 7 7 6 6 6 6 6 7 9 9 8 8 7 7 7 7 8 9 9 8 8 8 7 6 5 4 4 5 4 4 3 4 4 5 6 6 6
2 2 3 2 2 4 6 5 5 5 4 4 7 3 2 6 8 8 8 9 10 10 10 11 10 10 10 10 11 10 12 13 14 14 14 14 12 12 12 13 13 12 12 12 13 13 12 12 11 11 11 11 11 10 10 9 8 7 7 7 7 7 7 6 6 7 7 7 9 10 8 8 8 7 6 7 8 9 10 9 8 8 6 5 5 3 3 4 4 3 3 3 5 5 5 6 5
2 3 2 1 2 5 6 4 5 4 3 6 6 3 2 6 8 8 8 9 10 9 10 11 11 11 11 10 11 10 11 13 14 15 14 14 13 12 13 13 13 13 12 12 13 13 13 13 12 12 12 12 12 11 10 10 9 8 7 7 8 8 8 7 8 8 9 9 10 11 8 7 7 7 6 7 7 8 9 9 8 7 5 4 4 3 3 3 4 4 3 2 3 3 5 6 5
1 2 1 3 3 2 4 4 5 3 3 7 7 4 2 5 8 9 9 10 11 9 10 12 11 12 11 10 10 10 10 12 13 14 15 15 13 13 13 13 14 13 12 12 13 14 13 13 13 12 12 13 12 11 11 10 10 9 8 8 8 9 9 9 9 9 9 10 11 12 9 6 7 8 6 6 7 7 7 8 8 6 5 4 4 4 3 3 3 4 4 3 3 1 3 5 5
2 1 0 1 3 3 1 3 5 5 5 6 8 6 2 4 8 9 10 10 11 10 10 12 11 10 10 10 10 10 10 11 11 13 15 15 14 14 13 13 13 13 13 13 14 14 13 13 13 12 12 12 12 11 11 11 10 10 9 9 9 9 9 9 10 10 10 10 11 11 9 7 8 7 6 6 5 6 6 6 6 6 4 4 4 3 3 3 2 2 3 3 3 2 1 2 3
1 2 2 1 2 2 3 3 4 6 6 6 6 7 4 4 7 8 10 10 10 9 9 10 11 10 10 10 10 11 11 11 11 14 16 16 15 14 14 13 14 13 13 13 14 14 13 13 13 12 12 12 12 11 11 11 10 10 9 9 9 9 9 10 10 11 10 11 11 11 9 8 8 7 7 6 5 6 6 6 5 5 4 4 3 3 3 3 2 2 2 3 2 2 2 2 1
5 5 5 5 5 2 4 4 2 4 6 6 7 6 4 5 7 8 10 11 10 10 9 8 9 10 10 10 10 10 11 11 12 14 15 15 15 14 14 14 14 14 13 13 14 14 14 13 13 13 13 13 12 11 11 11 10 11 10 10 10 10 10 10 10 11 11 10 10 10 9 8 8 8 7 5 4 5 6 6 6 5 4 4 3 2 2 2 2 2 2 2 1 1 1 1 1
6 6 5 6 5 2 3 2 2 2 5 5 5 6 4 4 6 8 10 12 12 12 12 11 10 10 10 11 11 11 11 10 12 14 15 15 15 15 14 14 14 14 14 14 15 15 15 15 14 14 14 13 13 12 12 11 11 11 11 11 11 11 11 11 12 12 11 11 10 10 9 8 8 8 7 5 5 5 5 5 6 5 4 4 2 2 2 3 2 1 1 1 1 1 1 1 1
6 6 6 5 4 2 3 2 1 2 5 2 1 5 6 5 6 8 10 12 12 13 14 13 13 13 11 12 12 12 11 10 11 13 14 15 15 15 15 14 15 16 16 16 17 16 16 15 15 14 14 14 14 13 12 12 11 11 11 11 11 11 12 13 13 13 13 12 11 10 9 9 8 8 7 6 5 5 6 6 6 5 4 3 3 2 1 2 2 1 1 2 2 2 2 1 2
7 5 6 4 2 1 3 3 2 3 4 1 1 5 5 4 6 7 10 11 10 11 13 13 13 13 12 12 12 12 12 11 11 12 14 15 16 16 16 15 15 16 16 17 17 17 16 16 15 14 14 15 14 13 13 13 12 11 11 10 11 10 12 14 13 14 14 13 13 12 10 9 8 8 8 7 5 5 6 6 5 5 4 3 2 1 0 0 0 1 1 1 2 3 4 1 2
6 5 6 4 2 2 0 3 3 3 4 4 5 6 5 4 6 8 10 11 9 10 12 12 12 13 13 13 12 12 13 12 12 13 13 15 16 17 16 16 15 15 16 17 17 17 17 17 16 15 15 15 14 14 14 12 12 11 10 9 10 9 10 13 13 14 14 13 14 14 11 9 9 8 8 7 6 5 6 6 5 4 4 3 2 2 2 2 1 1 1 1 3 5 3 1 1
6 7 7 6 5 4 2 2 3 3 5 5 6 6 3 3 5 7 8 10 10 10 11 12 12 13 13 13 13 12 13 13 13 13 13 14 15 17 17 16 16 16 16 17 17 17 17 17 17 17 16 15 14 15 14 13 12 12 11 10 10 10 10 12 14 14 15 14 14 15 13 11 10 9 8 8 7 6 6 6 5 4 3 3 2 2 3 3 2 2 1 1 3 4 3 2 1
6 6 4 6 7 5 1 3 3 3 3 3 5 5 1 1 3 4 6 9 11 11 12 13 13 13 13 13 13 13 13 12 13 13 13 13 15 17 17 17 17 17 17 17 17 17 17 17 18 18 16 15 15 15 15 14 13 14 13 13 13 12 12 13 15 15 16 16 15 15 14 13 12 10 9 8 8 8 7 6 6 5 4 3 3 3 3 3 3 3 2 2 3 2 3 3 2
5 1 2 4 7 5 2 4 4 3 1 2 5 5 2 1 2 3 5 7 10 11 13 14 13 13 13 13 13 13 13 12 12 12 12 13 15 16 17 18 18 17 17 17 16 17 17 17 18 19 17 16 15 15 16 15 14 15 15 14 14 14 13 14 15 16 16 16 15 15 14 13 13 11 10 9 9 10 9 7 6 6 5 5 4 3 3 4 3 2 1 2 2 1 1 3 3
2 5 4 4 5 4 2 4 4 2 1 4 7 5 4 3 1 3 4 6 7 10 13 13 13 14 15 14 14 14 13 12 11 12 13 13 15 16 17 18 18 17 17 17 16 17 17 17 18 19 17 16 16 16 17 16 15 16 15 14 14 14 14 14 15 16 15 15 15 15 14 13 13 12 11 10 10 10 10 9 7 7 6 6 5 4 3 3 2 2 2 2 2 2 2 2 3
1 6 4 3 3 3 2 4 4 2 4 5 6 4 5 4 2 4 4 5 6 8 10 12 14 14 15 15 15 15 14 14 13 13 13 13 15 17 17 17 17 17 16 17 17 16 17 17 18 19 17 16 16 17 17 17 15 14 14 14 14 14 13 14 15 16 15 14 15 15 14 12 13 13 12 11 11 11 10 9 9 9 8 7 6 5 3 2 3 2 3 4 4 3 3 2 2
3 3 2 2 2 2 2 5 3 1 6 4 2 4 5 4 3 4 3 3 3 3 4 7 11 13 14 14 15 15 14 13 14 14 13 14 16 17 17 17 17 16 16 16 16 16 16 17 18 19 18 16 17 17 17 17 16 14 13 14 14 14 13 13 15 16 15 15 15 15 14 12 12 13 13 13 13 12 11 12 12 11 10 8 7 5 4 3 4 4 5 5 5 4 3 3 3
1 3 5 4 3 2 3 3 3 4 6 2 1 4 6 5 2 1 1 1 2 1 2 3 5 10 12 13 13 14 13 12 13 14 14 16 17 17 16 16 17 16 16 16 16 16 16 17 17 18 18 16 16 17 17 17 17 15 14 14 14 14 14 14 14 16 16 15 15 16 15 14 13 13 13 14 14 14 13 13 13 12 10 9 8 6 6 6 5 6 6 5 5 6 5 4 4
4 6 5 4 3 3 4 3 3 7 4 1 0 3 5 5 3 2 1 0 2 2 1 1 1 5 8 11 12 13 13 13 13 13 14 15 15 15 16 16 16 16 16 16 16 16 16 17 17 18 17 16 16 16 17 16 16 15 14 14 14 15 15 15 15 16 16 16 16 16 15 14 14 13 13 13 13 14 13 12 12 12 11 9 9 8 7 6 6 6 6 5 6 6 6 5 5
7 6 6 6 4 3 5 4 4 6 2 2 1 2 4 5 4 4 2 1 3 3 4 4 2 1 4 8 10 11 12 13 13 12 13 13 12 14 15 15 16 17 17 17 17 16 16 16 17 17 17 17 16 16 16 16 16 15 15 14 14 15 15 15 15 16 16 16 16 16 15 14 13 14 14 14 13 13 13 12 12 12 11 10 10 9 7 7 7 8 7 7 7 7 7 7 6
8 7 7 7 5 4 6 4 4 5 2 3 2 2 4 5 3 2 1 2 1 3 3 3 1 1 1 4 7 9 11 12 12 12 12 12 12 14 16 16 17 18 18 17 16 15 14 13 15 16 16 16 16 16 16 16 16 15 15 14 14 15 16 16 16 16 16 16 16 16 16 15 14 15 15 15 14 14 13 12 12 12 12 11 10 9 9 9 8 9 9 9 8 7 7 7 7
9 8 7 6 5 5 5 3 3 3 1 3 3 3 4 2 1 3 3 2 0 1 0 0 0 1 1 2 5 7 10 12 11 11 12 12 14 15 16 16 16 16 15 15 14 13 12 11 12 13 14 15 15 16 16 16 16 15 15 15 14 15 15 16 16 15 15 16 16 16 16 15 14 15 16 15 14 14 13 12 12 12 12 11 10 10 11 10 10 9 9 9 9 8 8 8 8
7 6 7 7 5 5 4 4 5 4 3 3 4 3 3 3 1 4 4 3 3 2 2 2 1 1 1 2 4 6 8 10 11 11 12 13 15 15 15 15 15 13 13 13 13 14 14 12 12 12 13 14 14 15 16 16 16 15 15 15 15 15 15 15 16 16 15 15 15 16 16 16 14 13 14 14 13 14 13 13 12 12 12 12 11 11 12 12 11 10 9 9 10 10 9 8 8
5 6 8 5 4 6 6 3 3 5 7 3 2 5 4 2 2 3 2 4 6 5 4 3 0 1 1 1 3 5 6 9 10 11 11 12 13 14 14 14 13 13 14 15 16 16 14 12 11 10 11 13 14 15 15 16 16 15 15 15 15 15 15 16 16 17 17 16 15 16 16 16 15 14 13 13 14 14 14 14 13 13 12 12 12 12 12 12 11 10 10 9 10 10 9 9 8
4 5 6 4 3 6 6 4 3 5 7 3 2 5 3 1 1 3 1 5 6 6 2 1 1 1 1 1 2 4 5 8 10 11 11 11 13 14 14 14 13 14 15 17 17 14 11 9 9 11 12 12 13 14 14 15 16 16 16 16 16 16 16 17 17 17 17 17 17 17 16 16 16 16 14 13 14 14 14 14 13 13 12 12 13 12 13 12 11 11 10 10 10 10 9 9 8
8 4 2 4 5 6 5 5 5 5 6 3 2 3 2 2 2 3 2 6 5 6 3 1 1 2 2 3 5 6 6 7 9 10 11 10 11 12 13 13 13 14 15 15 14 13 12 13 14 15 14 12 12 12 13 14 15 15 15 16 17 17 17 17 16 16 17 18 18 18 18 17 16 16 15 14 14 15 15 14 13 13 13 13 13 13 13 12 12 11 11 11 11 10 10 10 9
9 6 4 5 5 3 3 4 5 4 4 4 2 2 2 1 2 0 4 5 5 6 5 2 2 4 4 4 5 7 7 8 9 10 10 10 11 12 12 13 14 14 13 13 14 15 16 18 17 18 16 14 13 13 13 14 14 14 14 15 16 17 17 17 17 17 17 18 19 19 19 18 17 16 16 15 16 16 15 14 13 14 14 14 14 14 13 13 13 12 12 11 11 10 10 10 10
9 9 9 8 5 3 3 4 5 5 4 3 2 3 2 2 2 3 2 5 5 5 5 4 3 5 5 5 5 6 7 8 8 9 9 10 11 13 14 13 13 13 12 11 13 16 17 17 18 20 20 17 15 14 15 15 14 14 15 15 15 16 17 17 17 18 17 17 18 18 18 18 18 17 16 16 17 17 15 14 14 14 14 14 13 13 14 14 13 13 13 12 11 10 10 10 10
9 10 9 10 8 5 6 6 5 4 4 4 3 3 2 3 1 1 3 5 5 6 5 5 5 5 5 5 5 6 7 7 8 9 9 9 10 13 14 13 13 15 14 14 15 16 16 15 16 18 19 18 16 15 14 15 15 16 16 16 15 15 16 17 18 19 19 18 18 18 18 18 18 18 17 17 17 17 16 15 15 15 15 15 14 14 14 14 14 14 14 13 13 12 12 11 11
Wind_Direction
160 197 269 280 273 278 251 241 204 175 174 88 86 97 82 65 90 95 95 108 113 102 103 120 118 114 103 80 103 84 43 49 37 72 115 105 119 121 118 125 130 129 132 135 136 136 139 141 138 138 137 134 133 135 132 129 125 125 127 127 130 131 132 130 128 137 149 146 138 135 128 132 136 131 133 134 132 134 135 134 138 135 132 130 129 132 130 128 126 124 123 122 118 116 114 113 110
195 253 281 291 264 265 253 218 210 128 118 92 79 74 94 107 93 74 71 77 86 107 122 118 109 91 72 95 110 90 61 52 62 78 93 119 120 117 125 130 133 132 133 135 135 135 142 142 136 136 136 135 134 134 132 129 126 124 122 119 121 124 126 125 125 136 144 138 133 135 135 136 134 132 137 138 137 140 145 143 142 139 139 138 137 135 132 132 130 130 130 127 122 121 118 115 112
237 301 294 296 253 244 259 223 213 109 103 91 84 75 99 98 82 71 69 77 92 116 122 118 108 88 125 135 93 69 84 74 83 94 108 133 127 124 132 131 133 131 132 135 137 138 144 142 136 138 138 134 131 130 126 122 121 117 114 112 115 119 120 122 127 133 132 127 123 125 133 135 135 138 142 142 139 139 142 142 141 140 140 140 139 137 135 135 134 133 132 130 127 124 121 117 115
282 305 307 300 247 217 245 198 82 89 95 91 91 80 77 81 85 83 83 88 104 127 127 126 105 59 73 114 71 66 95 90 92 107 126 142 132 131 134 132 134 133 134 137 139 139 141 141 138 141 136 131 128 126 118 113 114 110 106 105 115 122 119 121 126 130 129 125 118 120 127 126 132 141 142 143 139 137 136 138 141 140 140 137 137 137 135 137 138 133 132 133 128 126 122 119 118
287 297 315 294 264 232 276 109 73 84 85 84 95 87 79 82 91 94 95 99 119 134 124 122 99 92 82 71 40 79 101 101 106 119 129 133 129 133 134 133 137 137 137 136 136 135 138 139 138 139 133 128 123 120 120 118 115 107 105 108 119 122 117 122 130 132 130 123 119 122 124 119 126 134 135 137 139 139 136 139 142 141 141 137 136 134 135 141 140 132 133 135 130 127 123 122 121
294 290 256 258 286 326 263 113 88 89 67 56 92 93 90 90 92 98 102 105 115 120 114 97 99 121 101 69 46 56 80 108 117 128 131 133 133 134 134 135 139 139 136 131 129 130 137 140 137 135 128 124 119 119 125 119 109 101 105 114 124 121 116 126 135 132 126 120 120 123 122 121 127 131 129 131 136 139 138 141 144 145 143 139 137 132 136 141 138 135 137 137 132 130 126 125 124
314 293 222 235 224 247 193 103 91 94 64 37 85 98 97 100 102 107 110 112 117 115 116 98 106 122 100 97 78 60 71 108 122 131 133 135 136 134 136 140 140 140 135 128 126 129 140 141 135 129 120 119 123 125 122 112 104 97 103 118 131 127 122 128 130 127 124 120 121 123 124 125 128 129 128 131 134 133 134 136 141 144 141 138 137 134 134 133 136 140 139 138 134 131 130 128 128
312 300 264 273 205 181 115 100 88 88 86 61 78 94 102 112 113 108 100 101 119 120 123 111 104 96 92 118 84 77 88 98 116 125 131 135 137 137 140 144 143 140 134 131 130 134 139 136 130 126 120 123 132 130 119 113 108 100 105 119 129 128 126 125 120 118 120 119 122 125 126 126 125 126 128 132 129 128 129 131 135 136 135 135 139 141 138 134 138 141 139 137 134 133 132 130 130
281 277 258 277 204 134 108 106 100 90 96 96 93 99 108 115 108 95 84 85 109 114 110 109 78 80 105 103 88 100 104 105 119 126 133 136 137 141 143 148 145 139 135 135 134 134 135 130 128 126 127 133 134 129 121 116 108 102 110 120 121 119 117 116 114 112 115 120 122 122 124 126 126 128 131 131 128 131 132 131 132 130 130 133 141 144 140 138 138 141 140 136 134 132 130 129 129
252 241 269 266 198 128 117 111 109 102 95 98 106 117 122 123 113 83 70 86 108 110 102 101 98 110 114 100 95 104 108 121 128 130 136 137 138 142 144 147 144 139 136 134 132 133 132 127 124 123 129 136 131 127 122 115 107 105 114 121 117 113 109 111 115 112 116 125 123 119 122 126 128 130 132 131 131 133 132 132 134 132 130 133 140 137 135 139 138 139 136 132 132 127 124 125 127
242 184 286 265 182 130 116 113 113 109 107 109 111 124 133 137 129 91 83 95 104 111 112 111 105 112 110 95 88 100 116 131 133 132 137 138 140 142 142 144 143 140 134 130 129 130 131 127 122 123 128 133 131 127 122 114 105 104 114 116 111 107 105 109 113 112 118 127 121 117 122 127 130 130 129 130 129 128 128 130 130 129 130 136 139 132 132 136 135 136 133 132 132 127 124 125 126
266 167 246 233 139 107 109 116 116 115 120 122 118 131 142 148 149 101 105 106 109 119 112 107 128 129 114 101 99 117 130 135 133 135 139 140 140 143 143 144 143 137 131 129 131 132 131 129 126 127 129 131 136 131 127 118 107 109 119 119 112 106 106 111 112 115 121 120 117 121 129 132 132 130 126 124 123 123 124 126 126 127 129 135 137 134 135 133 133 134 132 132 131 129 129 129 128
298 313 267 215 76 97 116 117 121 126 125 111 106 123 157 166 150 86 89 105 110 110 92 105 141 137 106 105 119 132 137 136 137 140 141 143 142 144 145 145 144 137 135 134 137 139 134 132 129 132 133 134 142 140 132 125 119 125 130 127 121 114 113 117 121 125 123 116 119 130 133 131 130 126 123 122 120 122 126 131 133 131 129 131 134 134 135 134 133 132 128 127 128 127 126 126 126
309 321 293 142 93 112 113 119 134 133 118 107 96 123 169 169 108 74 74 105 96 79 90 116 136 122 117 126 135 141 141 140 142 143 144 143 142 146 148 147 146 140 139 139 142 142 138 138 137 138 139 136 141 140 129 123 123 132 132 127 126 125 121 119 124 126 121 117 120 128 126 124 124 119 116 118 118 122 129 134 134 132 129 129 131 130 132 133 131 130 128 128 127 122 119 124 129
305 305 284 169 123 140 119 116 131 124 113 115 102 134 158 112 133 152 54 81 91 95 111 125 124 105 142 154 148 145 143 145 146 146 145 143 143 146 148 150 148 145 145 144 145 145 144 145 144 144 142 137 138 138 132 128 126 133 134 127 129 134 130 123 121 119 119 120 120 119 112 109 112 113 113 116 119 125 130 132 129 129 130 130 132 128 128 130 129 131 131 128 122 118 125 141 147
298 291 257 181 138 149 140 134 132 120 113 111 115 147 147 121 162 128 53 44 107 128 142 131 111 55 148 146 135 140 141 145 146 146 146 144 146 147 151 156 152 151 151 150 150 150 150 148 149 148 146 143 140 142 140 138 133 132 134 131 133 137 137 134 128 120 120 123 122 119 111 105 106 107 110 115 120 125 130 132 127 127 128 130 133 128 127 130 128 127 125 123 126 136 157 166 162
269 264 240 181 137 131 122 126 118 110 114 112 128 161 149 130 147 119 148 163 119 131 129 116 106 69 115 119 127 137 141 144 146 147 148 148 152 154 159 164 160 158 159 159 156 156 156 150 149 149 151 148 143 145 141 139 136 129 129 134 138 138 140 139 132 125 123 124 123 119 116 112 107 104 106 111 114 120 127 131 129 129 129 130 130 125 123 124 124 126 133 143 156 167 172 171 168
255 250 238 178 103 104 81 77 79 103 116 110 126 163 160 141 150 154 165 143 122 126 118 111 100 93 107 117 129 137 141 146 151 153 153 156 160 163 166 169 171 168 165 167 164 163 162 155 154 151 152 150 145 144 138 138 135 130 133 134 137 139 141 141 133 129 129 125 122 122 122 118 113 112 114 116 119 123 125 128 132 134 135 136 133 131 129 130 138 148 157 164 170 170 160 158 170
275 285 236 67 57 83 69 67 81 92 104 109 127 151 166 148 150 167 162 134 133 125 123 127 112 111 120 127 135 141 147 152 157 159 159 162 165 167 169 172 177 175 171 172 169 167 165 162 161 156 154 153 150 147 141 142 139 140 147 142 140 143 144 148 142 133 130 128 125 125 127 128 129 127 128 129 129 128 127 130 134 136 139 143 143 146 151 154 159 160 162 164 160 158 156 163 178
313 287 219 84 64 94 94 80 82 76 91 111 119 134 152 149 158 169 154 134 141 124 124 139 129 130 136 138 142 147 154 158 161 165 163 166 168 169 170 172 179 181 178 174 170 169 169 167 166 162 158 158 157 155 150 146 143 145 149 142 141 148 148 150 145 136 133 133 127 123 129 136 135 132 133 134 135 136 136 137 137 137 140 145 145 146 154 155 154 151 148 148 152 164 175 182 182
303 276 32 67 42 110 96 97 93 74 59 93 118 140 137 142 189 173 157 137 133 139 131 137 141 143 146 147 150 155 159 161 166 169 168 170 171 170 171 174 177 178 179 175 172 172 173 171 169 167 163 165 164 162 159 151 147 146 146 143 143 149 148 146 147 146 140 134 126 125 134 139 133 130 133 134 140 147 143 143 145 143 143 145 140 134 141 141 139 145 144 150 170 186 186 186 183
17 16 51 55 284 82 90 107 106 76 35 143 145 141 115 143 211 196 184 138 83 123 126 126 142 149 152 153 155 159 163 164 168 173 172 172 172 170 171 173 173 173 177 179 177 175 176 175 174 172 168 168 167 166 163 155 153 150 148 148 148 149 147 147 154 154 144 134 132 138 143 140 135 131 133 138 146 151 148 149 149 146 147 145 144 144 150 156 161 168 171 172 181 184 183 186 189
53 69 69 55 25 71 97 125 127 154 189 156 119 72 107 182 199 198 200 78 57 86 112 123 138 151 153 154 158 162 165 167 169 172 174 174 173 172 173 172 171 172 177 181 179 177 178 178 178 177 173 168 167 169 163 160 157 151 151 151 151 151 150 156 157 150 143 141 145 154 153 142 137 134 138 146 151 155 156 154 149 149 149 148 155 156 155 167 173 169 173 177 184 186 182 187 197
43 51 70 74 85 84 98 131 143 171 162 124 92 47 196 204 192 171 172 196 192 111 117 129 135 148 154 156 163 163 166 169 169 171 174 176 175 175 175 172 171 172 176 182 179 178 181 181 182 182 178 174 172 173 167 162 159 154 154 152 152 153 154 159 152 141 141 150 158 162 154 139 138 139 142 149 154 157 155 152 151 152 150 149 158 158 158 167 170 167 172 179 188 193 189 192 203
72 60 92 111 124 107 97 122 138 157 148 150 195 181 146 178 272 175 174 189 178 130 132 137 138 148 156 162 165 164 167 169 168 169 173 176 175 175 176 174 173 175 177 179 178 179 180 180 184 185 184 182 181 178 171 166 161 158 156 153 153 153 154 152 144 138 143 156 162 159 148 141 141 143 146 149 153 152 151 152 150 148 147 148 154 155 157 162 166 166 171 182 187 195 201 201 207
59 99 131 135 141 142 154 144 149 168 157 198 204 170 143 165 260 210 183 176 148 139 145 143 147 152 158 165 166 166 167 169 169 169 172 174 174 176 178 178 176 178 178 177 177 178 176 177 182 186 188 186 187 182 175 171 165 162 158 156 156 151 148 145 142 146 154 157 158 155 149 148 148 148 148 146 147 148 150 150 144 142 143 147 151 149 152 158 163 162 167 183 185 195 206 202 208
55 123 124 130 142 149 182 170 163 179 159 208 221 183 150 162 236 208 148 162 154 154 153 152 156 155 159 164 165 169 168 170 171 169 171 171 175 179 180 181 180 178 177 177 177 176 175 176 179 184 189 188 188 186 181 175 170 169 163 160 159 151 146 144 147 156 156 152 149 150 150 154 153 149 149 147 148 149 149 147 142 142 142 144 144 141 146 151 153 157 167 180 184 198 205 199 204
110 145 135 136 143 140 186 180 165 186 173 183 225 212 183 182 226 202 135 162 167 163 157 160 163 157 161 163 163 170 169 170 172 172 173 172 176 180 181 181 181 177 177 179 177 177 176 177 178 180 185 187 188 187 184 180 175 175 169 164 163 153 145 147 153 156 152 144 143 146 151 158 157 148 150 151 151 151 151 147 144 143 142 141 141 139 140 143 152 158 167 190 200 199 195 193 196
157 204 194 145 152 160 187 184 175 203 182 159 203 226 212 201 206 183 153 164 169 167 161 162 165 159 162 162 163 170 170 170 173 178 176 174 177 180 181 179 179 178 179 180 176 179 179 176 178 179 183 186 187 188 185 183 179 178 175 170 165 155 147 148 151 150 152 150 149 150 154 162 160 152 158 159 157 156 154 151 148 145 140 139 140 137 141 148 154 154 161 178 187 189 182 178 184
179 226 274 165 158 159 175 180 184 205 167 163 213 240 204 186 180 167 166 170 169 168 165 167 164 162 166 163 166 170 170 173 175 178 175 174 177 179 180 177 178 178 176 179 178 180 178 176 178 179 184 184 185 188 186 184 182 179 177 171 165 158 147 147 149 150 157 160 154 154 159 165 164 165 169 166 164 162 156 153 151 145 141 141 139 142 151 148 141 141 150 154 156 171 170 165 178
237 239 257 214 132 118 150 173 184 190 153 180 230 260 106 143 157 164 176 176 174 173 170 172 165 165 170 166 170 171 171 177 176 174 174 175 176 178 180 177 179 179 175 179 181 180 179 177 178 179 183 183 185 188 187 184 182 181 177 172 167 161 153 152 157 160 165 166 161 160 163 165 164 166 167 164 166 166 160 156 153 145 141 144 138 139 146 134 130 123 113 139 149 153 157 161 177
263 252 170 79 26 112 135 169 197 201 148 182 227 265 95 136 154 162 176 182 185 184 174 174 171 167 171 171 175 173 173 178 177 176 175 177 178 178 181 180 182 182 178 180 180 181 183 180 180 182 183 183 184 186 186 183 181 182 179 174 170 165 163 165 168 168 169 170 166 164 163 161 161 162 164 164 165 168 163 159 155 146 141 147 137 133 135 127 132 117 78 69 113 134 162 162 164
219 274 82 49 2 78 127 163 191 211 171 185 215 265 31 128 151 157 171 187 194 194 180 178 177 170 171 175 177 177 177 177 180 182 178 180 182 181 182 181 184 185 182 181 180 183 186 183 185 187 184 183 182 183 184 183 182 184 182 178 175 172 171 174 174 173 172 171 168 165 161 160 161 162 165 162 167 171 167 162 158 149 146 145 138 138 138 124 125 119 87 54 60 99 172 157 160
173 271 356 62 355 356 62 135 162 190 214 211 212 241 300 122 148 160 171 189 199 197 189 182 179 176 174 178 180 179 183 183 184 186 183 183 184 183 184 182 185 186 185 185 183 185 188 185 188 190 186 183 181 181 183 183 184 185 185 184 180 178 179 179 177 175 176 174 169 168 162 160 161 162 163 160 168 172 165 164 156 149 151 143 144 149 136 111 89 105 102 67 43 47 106 126 151
297 317 318 335 343 348 17 38 141 185 222 232 217 230 247 168 162 167 168 183 201 202 200 188 179 179 180 186 187 181 186 189 187 188 187 185 185 185 185 183 185 187 187 188 185 186 189 187 188 189 187 185 180 180 182 183 185 186 189 188 184 185 185 184 181 178 181 177 172 170 162 158 159 160 161 156 167 172 167 163 152 152 154 147 155 158 143 118 67 53 80 64 45 61 72 77 105
318 324 316 318 321 330 9 13 123 201 239 239 235 238 236 196 180 178 170 174 193 201 206 199 181 182 190 196 194 185 190 192 185 187 188 186 185 186 186 185 186 187 188 187 185 187 188 187 187 186 188 186 181 179 182 185 188 188 190 191 191 190 188 187 186 183 185 182 176 172 165 157 156 158 156 153 165 171 169 160 154 159 158 152 162 161 141 103 60 30 41 38 32 96 124 137 138
301 301 295 296 300 324 28 31 116 229 257 242 240 250 251 226 194 186 178 176 188 196 199 198 189 190 198 203 200 192 194 193 183 184 187 188 187 186 187 187 186 186 187 186 187 188 188 188 186 185 186 187 185 182 183 187 189 189 191 195 195 192 189 188 186 187 189 184 179 177 171 162 155 156 154 152 160 162 161 155 152 156 155 151 138 115 83 59 34 5 22 331 261 196 219 203 81
279 284 289 286 287 344 65 80 113 212 253 246 240 266 256 231 208 190 184 186 193 196 197 197 195 196 201 206 205 198 197 193 184 183 188 191 190 187 188 190 189 187 187 188 190 189 190 191 188 185 184 185 188 185 184 188 190 191 192 195 198 193 190 191 187 188 190 185 183 182 175 168 160 158 157 151 152 159 157 149 147 149 146 137 122 111 91 61 21 359 311 258 238 223 250 282 18
270 270 275 275 300 11 99 126 149 190 241 294 330 285 265 222 209 194 190 197 200 199 202 200 197 199 202 206 207 203 200 196 190 188 189 192 192 190 189 191 194 191 188 189 191 190 190 191 189 186 184 185 188 187 186 189 191 192 194 195 199 196 190 193 191 187 191 189 186 186 181 176 169 166 165 157 154 155 149 145 146 149 145 138 145 158 168 218 306 320 272 261 259 242 231 233 19
253 262 268 273 328 321 278 129 145 191 244 304 316 293 271 223 203 198 198 202 204 204 207 208 205 205 205 206 207 206 202 198 197 194 189 191 192 191 191 192 194 193 190 189 191 191 190 191 188 185 184 185 187 188 187 189 189 188 194 196 197 196 189 193 193 188 193 194 189 190 189 185 181 177 174 170 164 146 142 155 154 153 159 164 184 206 238 242 232 255 255 242 268 261 241 200 80
240 245 260 283 307 309 335 102 138 194 223 258 286 282 260 219 210 209 194 192 201 202 205 211 211 211 211 210 210 209 207 200 199 200 194 190 191 191 192 192 193 193 192 191 191 191 191 190 187 184 184 186 187 188 187 188 187 185 190 192 188 190 188 192 196 192 194 198 195 193 194 193 190 186 181 178 171 151 151 167 168 171 183 196 220 235 241 244 240 243 240 223 247 267 277 267 249
243 226 249 294 304 311 342 158 183 230 211 211 264 278 238 173 231 214 174 181 197 196 202 211 211 211 213 215 213 209 210 205 201 204 199 192 191 191 191 192 194 194 194 194 192 191 191 188 185 183 183 185 187 188 187 188 189 187 190 190 187 189 189 192 197 196 194 199 200 196 195 195 195 194 190 185 179 172 171 174 179 186 198 218 237 251 246 238 231 223 219 235 229 244 280 283 262
248 125 33 313 300 304 239 203 231 277 315 166 239 274 298 243 244 169 166 194 201 195 205 212 210 209 210 212 213 208 207 205 204 207 205 198 193 190 191 193 196 196 194 193 192 191 190 187 184 183 183 183 184 185 187 191 193 192 194 196 193 191 191 192 197 200 198 199 201 200 197 196 197 200 196 189 187 188 187 186 193 198 206 223 229 241 244 231 223 207 198 240 228 174 251 277 274
252 55 11 310 301 294 241 237 258 296 312 189 207 250 284 272 267 122 169 216 211 204 209 211 209 210 209 210 210 208 205 201 200 206 208 203 196 194 194 194 197 198 193 190 192 191 189 186 183 183 182 182 183 184 188 193 197 197 199 202 199 196 196 194 195 201 201 200 202 203 201 199 199 203 202 194 192 201 201 196 201 207 214 224 225 230 236 228 222 197 183 200 192 196 216 255 284
348 39 339 305 301 272 224 249 264 295 273 228 182 214 265 262 202 150 185 236 233 221 215 211 210 209 209 208 208 208 203 199 199 202 206 205 200 198 197 196 197 196 192 190 191 190 186 184 182 183 183 182 183 184 188 194 199 200 202 204 203 201 200 195 195 200 201 200 202 203 205 206 203 203 205 201 198 209 212 205 209 214 218 221 225 230 229 226 230 213 208 209 203 211 222 240 264
42 43 260 189 211 230 224 254 265 250 261 266 141 205 268 287 229 177 194 250 258 228 203 198 204 207 210 208 206 207 201 197 201 200 202 205 205 202 198 197 196 194 191 189 189 187 184 182 182 183 183 183 184 183 187 194 197 201 204 206 205 202 201 196 195 199 200 200 202 204 207 211 211 208 207 205 203 207 209 209 213 217 219 222 225 233 241 242 237 226 224 226 224 224 229 241 250
93 212 211 184 197 218 236 257 268 247 247 273 98 237 268 295 292 99 99 322 318 250 136 125 175 196 206 208 205 204 200 196 199 199 199 202 205 202 199 197 194 192 189 187 187 186 182 182 183 184 184 185 186 185 188 193 197 202 204 207 207 204 203 200 197 198 199 200 203 206 209 212 216 217 213 208 206 208 209 212 216 219 220 223 224 231 242 247 242 234 229 227 228 228 233 242 250
228 229 214 211 204 209 237 225 240 257 255 91 125 251 263 274 297 348 33 352 271 250 268 6 143 175 192 205 207 204 201 196 195 197 196 197 200 198 198 195 190 189 186 186 188 185 183 184 183 183 184 186 188 188 190 194 198 202 204 207 208 207 206 204 203 201 199 200 204 206 209 211 215 219 217 212 209 210 212 214 217 221 222 223 228 232 242 253 259 253 242 234 232 223 228 240 247
225 225 216 229 214 208 242 225 227 259 257 126 166 243 260 270 284 295 299 266 256 266 285 299 304 144 168 194 205 204 202 198 193 195 194 191 191 192 194 190 185 186 186 186 188 186 183 183 182 183 185 187 189 191 193 196 200 204 204 207 208 207 208 208 207 206 204 204 206 207 208 209 211 215 216 215 213 212 213 215 217 220 221 225 231 236 243 254 262 260 251 244 242 232 232 241 248
217 215 212 230 231 236 247 233 232 252 219 133 136 223 258 270 276 286 349 35 336 297 291 298 313 331 166 189 204 202 201 201 195 192 193 186 182 189 190 185 183 186 188 187 186 182 178 180 184 185 185 188 190 192 195 198 202 206 205 206 208 208 208 208 208 207 206 207 209 210 210 211 212 214 216 216 216 218 218 219 218 219 221 225 229 236 245 249 250 254 252 249 248 244 243 248 253
208 223 230 241 255 265 270 265 254 252 179 140 161 213 260 283 101 113 107 94 85 262 20 38 195 208 230 214 217 208 200 201 196 189 190 182 178 184 183 182 184 186 189 187 176 169 165 170 186 189 186 190 193 194 196 199 204 208 207 206 207 208 208 207 207 206 206 208 211 212 213 215 216 214 215 216 217 220 222 220 218 220 222 226 231 236 242 243 240 242 247 248 249 250 248 252 260
197 216 238 246 258 265 275 294 306 314 284 211 193 226 269 296 178 153 160 176 185 200 195 204 210 138 187 222 216 213 204 199 192 185 184 179 175 177 176 177 181 181 181 173 161 164 165 167 187 199 194 193 197 198 198 201 204 207 208 207 207 208 209 207 206 206 207 209 212 213 213 216 219 214 211 213 215 218 221 220 219 222 225 227 232 233 235 236 234 237 241 243 246 250 251 253 261
169 197 226 232 272 272 265 260 274 284 271 238 201 244 248 253 229 155 176 216 190 188 206 198 58 39 225 223 197 203 201 192 186 180 177 173 169 170 169 170 174 173 168 165 167 173 172 170 183 198 203 203 203 203 204 203 204 205 207 208 207 208 210 209 208 207 208 210 212 215 213 213 216 216 213 213 215 216 218 220 223 228 227 227 230 229 229 231 231 236 241 244 248 250 252 254 257
198 210 206 172 218 263 268 259 232 245 256 246 230 265 274 251 233 87 7 258 193 167 191 169 81 59 146 121 145 174 183 179 178 171 164 162 160 161 164 167 170 165 163 171 174 162 151 163 181 193 206 214 212 209 209 207 205 206 207 207 208 209 210 212 212 211 212 212 212 213 214 213 214 215 216 218 217 214 215 219 225 229 226 225 228 227 227 227 229 236 241 244 247 248 249 250 250
240 267 179 179 227 226 214 243 255 248 257 256 224 268 296 264 234 122 186 249 199 155 154 124 106 93 83 100 126 144 159 163 162 155 148 148 150 154 160 162 160 159 166 176 166 146 159 187 197 201 204 209 215 215 213 213 211 209 210 209 208 208 210 213 215 215 214 213 212 211 212 214 214 214 215 217 217 215 214 217 221 224 225 225 226 226 226 226 228 235 241 243 243 240 240 244 246
231 260 229 222 262 260 203 232 256 262 267 265 233 236 232 216 343 352 180 196 182 151 139 117 82 87 86 94 119 140 150 155 160 155 146 145 145 151 158 155 155 161 170 175 159 159 184 194 194 202 203 201 210 214 213 216 216 215 214 211 209 208 209 211 213 216 216 214 213 213 212 213 214 214 214 214 217 219 220 220 220 222 224 226 226 226 225 226 229 233 239 244 243 236 234 237 243
200 223 223 216 227 256 250 235 247 268 276 262 249 253 231 98 1 300 155 146 151 138 130 126 96 86 88 89 108 138 146 151 160 157 157 157 155 162 163 153 151 155 164 175 166 169 187 189 186 196 201 201 207 210 212 214 214 216 217 214 211 209 208 210 211 213 215 216 215 215 216 214 214 215 216 216 217 220 222 225 226 227 228 228 227 226 226 226 228 231 235 240 243 237 234 235 240
206 207 214 217 211 217 229 222 221 244 263 270 268 249 186 111 153 215 116 120 134 132 128 121 106 96 93 96 109 133 145 152 155 155 161 162 163 172 168 154 150 152 159 168 165 171 188 189 185 190 197 204 210 212 214 214 211 214 216 215 213 210 209 211 212 211 214 216 216 217 218 217 216 216 216 218 219 219 222 226 229 230 231 231 229 227 229 228 228 231 233 236 238 235 232 234 239